Location: Bailleul
(50.3375°N, 2.8513°E)
Time: 04:26:59
(UTC+00:00)

Cosmos 1980 - Pass Details

Date: 01 November 2021
Orbit: 839 x 847 km, 71.0° (Epoch: 01 December)

Event Time Altitude Azimuth Distance (km) Brightness Sun altitude
Exits shadow 01:32:42 11° 48° (NE) 2,381 6.6 -46.6°
Drops below altitude 10° 01:33:19 10° 53° (NE) 2,472 6.7 -46.5°
Sets 01:37:14 0° 80° (E) 3,406 7.4 -46.1°
